Find Starlink 37138

NORAD ID: 68308 Int'l Des: 2026-057 Owner: SPXS Country: US Constellation: starlink operational
LEOCIRCULARRETROGRADE

リアルタイム位置

3D地球を読み込み中...

Starlink 37138について

説明を読み込み中...

次回通過

Passes for default location (London). Set your location on the main map for personalized predictions.

高度履歴

Loading altitude history...

軌道要素

1 68308U 26057Q 26125.29240119 .00431424 00000-0 27300-2 0 9991
2 68308 97.2858 250.5219 0002471 128.3256 231.8232 15.75357123 7198
Epoch: May 5, 2026 • Age: 15 hours

現在のステータス

高度 349.8 km
速度 7.70 km/s
衛星直下点 50.09°N, 41.55°E
打ち上げ日 Mar 20, 2026
運用期間 0.1 years
タイプ internet

技術仕様

分類 Payload
質量 575.00 kg
乾燥質量 530.00 kg
総質量 575.00 kg
長さ 0.30 m
直径 4.10 m
スパン 29.00 m
形状 Box + pan
製造者 SPXS
バスタイプ Starlink V2MO
フェーズステータス In Orbit
所有者/国 SPXS/US

Most Searched